| time (UTC) | temp C | wind direction | speed KPH | gust KPH | rain 1hr cm | rain 24hr cm | rain mn cm | humidity % | barometer mb |
| 20260508092703 | 16 | 99 | 3.2 | 11.3 | 0.00 | 0.00 | 0.00 | 60 | 1015.9 |
| 20260508091803 | 16 | 114 | 3.2 | 8.0 | 0.00 | 0.00 | 0.00 | 63 | 1015.7 |
| 20260508090905 | 16 | 129 | 3.2 | 12.9 | 0.00 | 0.00 | 0.00 | 63 | 1015.9 |
| 20260508090218 | 16 | 120 | 3.2 | 9.7 | 0.00 | 0.00 | 0.00 | 64 | 1015.8 |
| 20260508085403 | 16 | 108 | 1.6 | 9.7 | 0.00 | 0.00 | 0.00 | 68 | 1015.8 |
| 20260508084717 | 15 | 90 | 3.2 | 9.7 | 0.00 | 0.00 | 0.00 | 70 | 1015.9 |
| 20260508083603 | 15 | 99 | 3.2 | 11.3 | 0.00 | 0.00 | 0.00 | 71 | 1015.8 |
| 20260508082704 | 14 | 76 | 3.2 | 12.9 | 0.00 | 0.00 | 0.00 | 72 | 1015.7 |
| 20260508081803 | 14 | 90 | 3.2 | 12.9 | 0.00 | 0.00 | 0.00 | 74 | 1015.7 |
| 20260508081116 | 13 | 83 | 3.2 | 12.9 | 0.00 | 0.00 | 0.00 | 74 | 1015.8 |
| 20260508080005 | 13 | 88 | 3.2 | 11.3 | 0.00 | 0.00 | 0.00 | 76 | 1015.7 |
| 20260508075405 | 12 | 82 | 3.2 | 11.3 | 0.00 | 0.00 | 0.00 | 78 | 1015.7 |
| 20260508074505 | 12 | 91 | 1.6 | 6.4 | 0.00 | 0.00 | 0.00 | 80 | 1015.5 |
| 20260508073603 | 11 | 93 | 3.2 | 12.9 | 0.00 | 0.00 | 0.00 | 80 | 1015.5 |
| 20260508072917 | 11 | 91 | 3.2 | 12.9 | 0.00 | 0.00 | 0.00 | 81 | 1015.5 |
| 20260508071805 | 11 | 85 | 1.6 | 8.0 | 0.00 | 0.00 | 0.00 | 83 | 1015.4 |
| 20260508071117 | 11 | 87 | 1.6 | 9.7 | 0.00 | 0.00 | 0.00 | 83 | 1015.4 |
| 20260508070005 | 10 | 79 | 1.6 | 4.8 | 0.00 | 0.00 | 0.00 | 84 | 1015.5 |
| 20260508065403 | 10 | 81 | 1.6 | 4.8 | 0.00 | 0.00 | 0.00 | 84 | 1015.5 |
| 20260508064505 | 10 | 86 | 0.0 | 4.8 | 0.00 | 0.00 | 0.00 | 85 | 1015.4 |
| 20260508063603 | 9 | 87 | 1.6 | 4.8 | 0.00 | 0.00 | 0.00 | 86 | 1015.4 |
| 20260508062918 | 9 | 88 | 1.6 | 4.8 | 0.00 | 0.00 | 0.00 | 86 | 1015.4 |
| 20260508061804 | 9 | 89 | 1.6 | 4.8 | 0.00 | 0.00 | 0.00 | 86 | 1015.4 |
| 20260508061118 | 9 | 92 | 1.6 | 4.8 | 0.00 | 0.00 | 0.00 | 87 | 1015.4 |
| 20260508060005 | 8 | 92 | 0.0 | 3.2 | 0.00 | 0.00 | 0.00 | 88 | 1015.3 |
| 20260508055405 | 8 | 93 | 0.0 | 3.2 | 0.00 | 0.00 | 0.00 | 88 | 1015.2 |
| 20260508054504 | 8 | 93 | 1.6 | 4.8 | 0.00 | 0.00 | 0.00 | 89 | 1015.1 |
| 20260508053605 | 8 | 95 | 1.6 | 6.4 | 0.00 | 0.00 | 0.00 | 89 | 1015.1 |
| 20260508052705 | 8 | 96 | 0.0 | 3.2 | 0.00 | 0.00 | 0.00 | 90 | 1015.0 |
| 20260508051804 | 8 | 96 | 0.0 | 3.2 | 0.00 | 0.00 | 0.00 | 90 | 1015.1 |
| 20260508050905 | 8 | 96 | 0.0 | 3.2 | 0.00 | 0.00 | 0.00 | 90 | 1015.0 |
| 20260508050005 | 7 | 96 | 1.6 | 4.8 | 0.00 | 0.00 | 0.00 | 91 | 1015.0 |
| 20260508045405 | 7 | 96 | 1.6 | 4.8 | 0.00 | 0.00 | 0.00 | 91 | 1014.9 |
| 20260508044503 | 7 | 96 | 0.0 | 3.2 | 0.00 | 0.00 | 0.00 | 91 | 1014.8 |
| 20260508043603 | 7 | 96 | 0.0 | 4.8 | 0.00 | 0.00 | 0.00 | 91 | 1014.7 |
| 20260508042919 | 7 | 97 | 0.0 | 4.8 | 0.00 | 0.00 | 0.00 | 92 | 1014.8 |
| 20260508041805 | 7 | 96 | 0.0 | 1.6 | 0.00 | 0.00 | 0.00 | 91 | 1014.8 |
| 20260508040903 | 6 | 0 | 0.0 | 0.0 | 0.00 | 0.00 | 0.00 | 91 | 1014.7 |
| 20260508040004 | 7 | 0 | 0.0 | 0.0 | 0.00 | 0.00 | 0.00 | 91 | 1014.7 |
| 20260508035618 | 7 | 0 | 0.0 | 0.0 | 0.00 | 0.00 | 0.00 | 91 | 1014.7 |
| 20260508034505 | 6 | 0 | 0.0 | 0.0 | 0.00 | 0.00 | 0.00 | 91 | 1014.6 |
| 20260508033604 | 6 | 0 | 0.0 | 0.0 | 0.00 | 0.00 | 0.00 | 91 | 1014.8 |
| 20260508032920 | 7 | 97 | 0.0 | 1.6 | 0.00 | 0.00 | 0.00 | 91 | 1014.7 |
| 20260508031803 | 7 | 0 | 0.0 | 0.0 | 0.00 | 0.00 | 0.00 | 90 | 1014.7 |
| 20260508030903 | 7 | 0 | 0.0 | 0.0 | 0.00 | 0.00 | 0.00 | 90 | 1014.8 |
| 20260508030005 | 7 | 0 | 0.0 | 0.0 | 0.00 | 0.00 | 0.00 | 91 | 1014.8 |
| 20260508025405 | 7 | 96 | 0.0 | 1.6 | 0.00 | 0.00 | 0.00 | 91 | 1014.8 |
| 20260508024503 | 6 | 96 | 0.0 | 1.6 | 0.00 | 0.00 | 0.00 | 90 | 1014.8 |
| 20260508023605 | 6 | 0 | 0.0 | 0.0 | 0.00 | 0.00 | 0.00 | 90 | 1014.9 |
| 20260508022703 | 6 | 0 | 0.0 | 0.0 | 0.00 | 0.00 | 0.00 | 89 | 1014.9 |
| 20260508021805 | 6 | 0 | 0.0 | 0.0 | 0.00 | 0.00 | 0.00 | 89 | 1014.9 |
| 20260508020903 | 7 | 0 | 0.0 | 0.0 | 0.00 | 0.00 | 0.00 | 88 | 1014.9 |
| 20260508020003 | 7 | 0 | 0.0 | 0.0 | 0.00 | 0.00 | 0.00 | 88 | 1014.9 |
| 20260508015405 | 7 | 0 | 0.0 | 0.0 | 0.00 | 0.00 | 0.00 | 88 | 1015.0 |
| 20260508014717 | 7 | 0 | 0.0 | 0.0 | 0.00 | 0.00 | 0.00 | 88 | 1015.0 |
| 20260508013603 | 7 | 97 | 0.0 | 1.6 | 0.00 | 0.00 | 0.00 | 88 | 1015.1 |
| 20260508012703 | 7 | 0 | 0.0 | 0.0 | 0.00 | 0.00 | 0.00 | 87 | 1015.1 |
| 20260508011803 | 7 | 0 | 0.0 | 0.0 | 0.00 | 0.00 | 0.00 | 88 | 1015.1 |
| 20260508011116 | 8 | 96 | 0.0 | 1.6 | 0.00 | 0.00 | 0.00 | 88 | 1015.1 |
| 20260508010005 | 8 | 0 | 0.0 | 0.0 | 0.00 | 0.00 | 0.00 | 87 | 1015.0 |
| 20260508005403 | 8 | 0 | 0.0 | 0.0 | 0.00 | 0.00 | 0.00 | 87 | 1015.1 |
| 20260508004505 | 8 | 98 | 0.0 | 1.6 | 0.00 | 0.00 | 0.00 | 87 | 1015.1 |
| 20260508003814 | 8 | 98 | 0.0 | 1.6 | 0.00 | 0.00 | 0.00 | 86 | 1015.1 |
| 20260508002704 | 8 | 0 | 0.0 | 0.0 | 0.00 | 0.00 | 0.00 | 85 | 1015.2 |
| 20260508001803 | 8 | 97 | 0.0 | 1.6 | 0.00 | 0.00 | 0.00 | 85 | 1015.2 |
| 20260508000905 | 8 | 97 | 0.0 | 1.6 | 0.00 | 0.00 | 0.00 | 85 | 1015.2 |
| 20260508000006 | 9 | 97 | 0.0 | 1.6 | 0.00 | 0.00 | 0.00 | 84 | 1015.2 |
| 20260507235615 | 9 | 96 | 0.0 | 1.6 | 0.00 | 0.00 | 0.00 | 84 | 1015.2 |
| 20260507234504 | 9 | 0 | 0.0 | 0.0 | 0.00 | 0.00 | 0.00 | 83 | 1015.2 |
| 20260507233606 | 10 | 0 | 0.0 | 0.0 | 0.00 | 0.00 | 0.00 | 83 | 1015.2 |
| 20260507232705 | 10 | 96 | 0.0 | 1.6 | 0.00 | 0.00 | 0.00 | 82 | 1015.3 |
| 20260507231803 | 10 | 97 | 0.0 | 1.6 | 0.00 | 0.00 | 0.00 | 82 | 1015.4 |
| 20260507230903 | 10 | 97 | 0.0 | 1.6 | 0.00 | 0.00 | 0.00 | 81 | 1015.3 |
| 20260507230214 | 10 | 0 | 0.0 | 0.0 | 0.00 | 0.00 | 0.00 | 81 | 1015.2 |
| 20260507225405 | 10 | 0 | 0.0 | 0.0 | 0.00 | 0.00 | 0.00 | 80 | 1015.4 |
| 20260507224505 | 11 | 97 | 0.0 | 1.6 | 0.00 | 0.00 | 0.00 | 80 | 1015.5 |
| 20260507223603 | 11 | 97 | 0.0 | 4.8 | 0.00 | 0.00 | 0.00 | 80 | 1015.6 |
| 20260507222703 | 11 | 97 | 0.0 | 3.2 | 0.00 | 0.00 | 0.00 | 80 | 1015.5 |
| 20260507221806 | 11 | 97 | 0.0 | 3.2 | 0.00 | 0.00 | 0.00 | 79 | 1015.4 |
| 20260507220906 | 11 | 97 | 0.0 | 1.6 | 0.00 | 0.00 | 0.00 | 79 | 1015.5 |
| 20260507220004 | 11 | 97 | 0.0 | 3.2 | 0.00 | 0.00 | 0.00 | 79 | 1015.5 |
| 20260507215403 | 11 | 97 | 0.0 | 3.2 | 0.00 | 0.00 | 0.00 | 79 | 1015.6 |
| 20260507214714 | 11 | 97 | 0.0 | 3.2 | 0.00 | 0.00 | 0.00 | 79 | 1015.6 |
| 20260507213816 | 11 | 97 | 0.0 | 3.2 | 0.00 | 0.00 | 0.00 | 78 | 1015.6 |
| 20260507212705 | 11 | 97 | 0.0 | 3.2 | 0.00 | 0.00 | 0.00 | 78 | 1015.6 |
| 20260507211806 | 11 | 97 | 0.0 | 4.8 | 0.00 | 0.00 | 0.00 | 78 | 1015.6 |
| 20260507210905 | 11 | 98 | 0.0 | 3.2 | 0.00 | 0.00 | 0.00 | 77 | 1015.6 |
| 20260507210005 | 11 | 98 | 1.6 | 4.8 | 0.00 | 0.00 | 0.00 | 77 | 1015.5 |
| 20260507205405 | 11 | 98 | 0.0 | 4.8 | 0.00 | 0.00 | 0.00 | 77 | 1015.5 |
| 20260507204503 | 11 | 98 | 0.0 | 4.8 | 0.00 | 0.00 | 0.00 | 76 | 1015.4 |
| 20260507203604 | 11 | 101 | 1.6 | 9.7 | 0.00 | 0.00 | 0.00 | 76 | 1015.4 |
| 20260507202703 | 11 | 104 | 1.6 | 4.8 | 0.00 | 0.00 | 0.00 | 76 | 1015.4 |
| 20260507201806 | 12 | 104 | 1.6 | 4.8 | 0.00 | 0.00 | 0.00 | 75 | 1015.3 |
| 20260507200905 | 12 | 91 | 1.6 | 6.4 | 0.00 | 0.00 | 0.00 | 75 | 1015.2 |
| 20260507200216 | 12 | 93 | 0.0 | 6.4 | 0.00 | 0.00 | 0.00 | 75 | 1015.2 |
| 20260507195404 | 12 | 93 | 0.0 | 4.8 | 0.00 | 0.00 | 0.00 | 74 | 1015.0 |
| 20260507194503 | 12 | 98 | 1.6 | 9.7 | 0.00 | 0.00 | 0.00 | 74 | 1014.9 |
| 20260507193605 | 12 | 96 | 1.6 | 9.7 | 0.00 | 0.00 | 0.00 | 73 | 1014.8 |
| 20260507192705 | 12 | 98 | 1.6 | 11.3 | 0.00 | 0.00 | 0.00 | 73 | 1014.7 |
| 20260507191804 | 12 | 105 | 1.6 | 6.4 | 0.00 | 0.00 | 0.00 | 72 | 1014.8 |
| 20260507190903 | 12 | 94 | 3.2 | 12.9 | 0.00 | 0.00 | 0.00 | 72 | 1014.7 |
| 20260507190006 | 12 | 94 | 3.2 | 14.5 | 0.00 | 0.00 | 0.00 | 72 | 1014.7 |
| 20260507185613 | 12 | 94 | 3.2 | 14.5 | 0.00 | 0.00 | 0.00 | 72 | 1014.7 |
| 20260507184504 | 13 | 99 | 3.2 | 9.7 | 0.00 | 0.00 | 0.00 | 71 | 1014.7 |
| 20260507183604 | 13 | 87 | 3.2 | 12.9 | 0.00 | 0.00 | 0.00 | 71 | 1014.7 |
| 20260507182916 | 13 | 103 | 4.8 | 14.5 | 0.00 | 0.00 | 0.00 | 71 | 1014.6 |
| 20260507181803 | 13 | 97 | 3.2 | 11.3 | 0.00 | 0.00 | 0.00 | 70 | 1014.6 |
| 20260507180905 | 13 | 121 | 3.2 | 11.3 | 0.00 | 0.00 | 0.00 | 69 | 1014.6 |
| 20260507180005 | 13 | 130 | 3.2 | 9.7 | 0.00 | 0.00 | 0.00 | 68 | 1014.5 |
| 20260507175405 | 13 | 132 | 3.2 | 6.4 | 0.00 | 0.00 | 0.00 | 67 | 1014.5 |
| 20260507174716 | 13 | 128 | 3.2 | 9.7 | 0.00 | 0.00 | 0.00 | 66 | 1014.5 |
| 20260507173605 | 13 | 111 | 3.2 | 12.9 | 0.00 | 0.00 | 0.00 | 66 | 1014.4 |
| 20260507172916 | 14 | 122 | 3.2 | 12.9 | 0.00 | 0.00 | 0.00 | 66 | 1014.4 |
| 20260507171804 | 14 | 114 | 1.6 | 8.0 | 0.00 | 0.00 | 0.00 | 65 | 1014.5 |
| 20260507170904 | 14 | 159 | 3.2 | 9.7 | 0.00 | 0.00 | 0.00 | 63 | 1014.4 |
| 20260507170004 | 14 | 166 | 1.6 | 6.4 | 0.00 | 0.00 | 0.00 | 62 | 1014.4 |
| 20260507165406 | 14 | 165 | 3.2 | 8.0 | 0.00 | 0.00 | 0.00 | 61 | 1014.4 |
| 20260507164505 | 14 | 139 | 1.6 | 6.4 | 0.00 | 0.00 | 0.00 | 61 | 1014.4 |
| 20260507163605 | 14 | 151 | 1.6 | 8.0 | 0.00 | 0.00 | 0.00 | 61 | 1014.3 |
| 20260507162705 | 14 | 127 | 1.6 | 6.4 | 0.00 | 0.00 | 0.00 | 61 | 1014.4 |
| 20260507161805 | 15 | 128 | 1.6 | 6.4 | 0.00 | 0.00 | 0.00 | 61 | 1014.3 |
| 20260507160905 | 15 | 107 | 3.2 | 11.3 | 0.00 | 0.00 | 0.00 | 60 | 1014.4 |
| 20260507160005 | 15 | 139 | 3.2 | 12.9 | 0.00 | 0.00 | 0.00 | 60 | 1014.4 |
| 20260507155615 | 15 | 120 | 3.2 | 12.9 | 0.00 | 0.00 | 0.00 | 61 | 1014.4 |
| 20260507154504 | 15 | 117 | 1.6 | 12.9 | 0.00 | 0.00 | 0.00 | 63 | 1014.4 |
| 20260507153605 | 14 | 159 | 1.6 | 8.0 | 0.00 | 0.00 | 0.00 | 62 | 1014.3 |
| 20260507152917 | 14 | 142 | 1.6 | 8.0 | 0.00 | 0.00 | 0.00 | 61 | 1014.3 |
| 20260507151806 | 14 | 142 | 1.6 | 4.8 | 0.00 | 0.00 | 0.00 | 60 | 1014.4 |
| 20260507150905 | 14 | 144 | 1.6 | 3.2 | 0.00 | 0.00 | 0.00 | 60 | 1014.5 |
| 20260507150009 | 14 | 141 | 1.6 | 9.7 | 0.00 | 0.00 | 0.00 | 60 | 1014.5 |
| 20260507145405 | 15 | 103 | 3.2 | 9.7 | 0.00 | 0.00 | 0.00 | 60 | 1014.5 |
| 20260507144503 | 15 | 125 | 1.6 | 9.7 | 0.00 | 0.00 | 0.00 | 58 | 1014.5 |
| 20260507143603 | 15 | 146 | 1.6 | 8.0 | 0.00 | 0.00 | 0.00 | 59 | 1014.5 |
| 20260507142705 | 15 | 108 | 3.2 | 11.3 | 0.00 | 0.00 | 0.00 | 59 | 1014.6 |
| 20260507141803 | 15 | 88 | 3.2 | 12.9 | 0.00 | 0.00 | 0.00 | 59 | 1014.5 |
| 20260507140905 | 15 | 97 | 3.2 | 12.9 | 0.00 | 0.00 | 0.00 | 59 | 1014.6 |
| 20260507140003 | 15 | 99 | 3.2 | 14.5 | 0.00 | 0.00 | 0.00 | 62 | 1014.7 |
| 20260507135404 | 15 | 99 | 3.2 | 12.9 | 0.00 | 0.00 | 0.00 | 63 | 1014.6 |
| 20260507134503 | 15 | 84 | 4.8 | 14.5 | 0.00 | 0.00 | 0.00 | 62 | 1014.6 |
| 20260507133603 | 15 | 94 | 3.2 | 9.7 | 0.00 | 0.00 | 0.00 | 62 | 1014.8 |
| 20260507132703 | 15 | 85 | 3.2 | 8.0 | 0.00 | 0.00 | 0.00 | 59 | 1014.8 |
| 20260507131806 | 15 | 113 | 1.6 | 6.4 | 0.00 | 0.00 | 0.00 | 60 | 1014.8 |
| 20260507130906 | 15 | 99 | 1.6 | 6.4 | 0.00 | 0.00 | 0.00 | 61 | 1014.9 |
| 20260507130007 | 14 | 78 | 1.6 | 6.4 | 0.00 | 0.00 | 0.00 | 64 | 1014.9 |
| 20260507125408 | 14 | 79 | 1.6 | 4.8 | 0.00 | 0.00 | 0.00 | 64 | 1014.9 |
| 20260507124504 | 14 | 82 | 1.6 | 11.3 | 0.00 | 0.00 | 0.00 | 65 | 1015.0 |
| 20260507123817 | 13 | 79 | 1.6 | 11.3 | 0.00 | 0.00 | 0.00 | 65 | 1015.1 |
| 20260507122705 | 13 | 76 | 1.6 | 6.4 | 0.00 | 0.00 | 0.00 | 66 | 1015.0 |
| 20260507121805 | 13 | 73 | 1.6 | 6.4 | 0.00 | 0.00 | 0.00 | 66 | 1015.1 |
| 20260507120903 | 13 | 78 | 0.0 | 3.2 | 0.00 | 0.00 | 0.00 | 67 | 1015.1 |
| 20260507120005 | 13 | 78 | 1.6 | 4.8 | 0.00 | 0.00 | 0.00 | 66 | 1015.1 |
| 20260507115404 | 12 | 79 | 0.0 | 4.8 | 0.00 | 0.00 | 0.00 | 67 | 1015.0 |
| 20260507114504 | 12 | 79 | 0.0 | 3.2 | 0.00 | 0.00 | 0.00 | 67 | 1015.0 |
| 20260507113605 | 12 | 79 | 0.0 | 4.8 | 0.00 | 0.00 | 0.00 | 67 | 1015.1 |
| 20260507112705 | 12 | 79 | 1.6 | 3.2 | 0.00 | 0.00 | 0.00 | 67 | 1015.0 |
| 20260507111804 | 12 | 79 | 0.0 | 4.8 | 0.00 | 0.00 | 0.00 | 68 | 1015.2 |
| 20260507110905 | 12 | 79 | 1.6 | 8.0 | 0.00 | 0.00 | 0.00 | 68 | 1015.2 |
| 20260507110217 | 12 | 80 | 0.0 | 8.0 | 0.00 | 0.00 | 0.00 | 68 | 1015.2 |
| 20260507105613 | 12 | 81 | 0.0 | 3.2 | 0.00 | 0.00 | 0.00 | 68 | 1015.2 |
| 20260507104503 | 12 | 81 | 0.0 | 3.2 | 0.00 | 0.00 | 0.00 | 68 | 1015.2 |
| 20260507103605 | 13 | 81 | 1.6 | 6.4 | 0.00 | 0.00 | 0.00 | 68 | 1015.2 |
| 20260507102915 | 12 | 83 | 0.0 | 6.4 | 0.00 | 0.00 | 0.00 | 69 | 1015.1 |
| 20260507101803 | 12 | 84 | 1.6 | 4.8 | 0.00 | 0.00 | 0.00 | 70 | 1015.3 |
| 20260507100904 | 12 | 85 | 1.6 | 4.8 | 0.00 | 0.00 | 0.00 | 71 | 1015.3 |
| 20260507100005 | 12 | 86 | 1.6 | 3.2 | 0.00 | 0.00 | 0.00 | 72 | 1015.3 |
| 20260507095405 | 12 | 86 | 1.6 | 6.4 | 0.00 | 0.00 | 0.00 | 71 | 1015.3 |
| 20260507094505 | 12 | 86 | 1.6 | 6.4 | 0.00 | 0.00 | 0.00 | 72 | 1015.2 |
| 20260507093814 | 12 | 91 | 1.6 | 6.4 | 0.00 | 0.00 | 0.00 | 72 | 1015.2 |